Location: L�tisburg
(47.3947°N, 9.0820°E)
Time: 05:59:00
(UTC+00:00)

Okean 3 - Visible Passes

Search period start: 14 June 2021 00:00
Search period end: 24 June 2021 00:00
Orbit: 575 x 601 km, 82.5° (Epoch: 13 June)

Date Brightness Start Highest point End Pass type
(mag) Time Alt. Az. Time Alt. Az. Time Alt. Az.
14 Jun 5.9 20:01:59 10° SW 20:05:28 25° WNW 20:08:59 10° NNW visible
15 Jun 6.3 20:10:20 10° WSW 20:13:17 18° WNW 20:16:15 10° NNW visible
16 Jun 6.6 20:19:02 10° W 20:21:07 13° WNW 20:23:13 10° NW visible
